Location: Newark
(27.2452°N, 107.0032°W)
Time: 04:06:24
(UTC+00:00)

Starlink Launch 2 leader - Visible Passes

Search period start: 06 December 2019 00:00
Search period end: 16 December 2019 00:00
Orbit: 279 x 281 km, 53.0° (Epoch: 13 November)

Date Brightness Start Highest point End Pass type
(mag) Time Alt. Az. Time Alt. Az. Time Alt. Az.
10 Dec 5.2 12:54:16 10° NNE 12:55:19 12° NE 12:56:22 10° ENE visible
11 Dec 4.1 12:55:16 11° NNW 12:57:20 27° NE 12:59:28 10° ESE visible
12 Dec 2.2 12:57:37 18° NW 12:59:16 84° NE 13:01:41 10° SE visible
13 Dec 3.4 13:00:02 20° W 13:01:08 28° SW 13:03:18 10° S visible
14 Dec 4.7 13:02:31 11° WSW 13:02:56 11° SW 13:03:47 10° SW visible
